AFR498 LFPG-TNCM

Flight info

Callsign AFR498
Flight time N/A
Altitude 30000
Route LGL UN491 UPALO UN585 FEJAC DCT REGHI/M077F300 DCT ETIKI DCT 47N015W 46N020W 42N030W 37N040W 34N045W 31N050W 27N055W 22N060W DCT OBIKE/N0446F300 M576 PJM
Aircraft A332/H-SDE2E3FGHIJ3J5M1P2RWXYZ/LB1D1

Departure

Time 2026-04-30 08:16
Airport Charles de Gaulle International Airport (LFPG)

Arrival

Time N/A
Airport Princess Juliana International Airport (TNCM)
Time Latitude Longitude Altitude Speed Heading
2026-04-30 07:33 49.00127 2.58408 358 ft 0 kts 85°
2026-04-30 07:37 49.00128 2.58426 364 ft 0 kts 85°
2026-04-30 08:06 49.00127 2.58414 362 ft 3 kts 85°
2026-04-30 08:06 49.00125 2.58385 358 ft 2 kts 85°
2026-04-30 08:06 49.00128 2.58357 361 ft 3 kts 112°
2026-04-30 08:07 49.00136 2.58330 364 ft 3 kts 137°
2026-04-30 08:07 49.00151 2.58317 364 ft 1 kts 177°
2026-04-30 08:08 49.00148 2.58317 364 ft 2 kts 177°
2026-04-30 08:08 49.00127 2.58318 366 ft 4 kts 180°
2026-04-30 08:09 49.00077 2.58321 363 ft 10 kts 176°
2026-04-30 08:09 49.00002 2.58304 366 ft 12 kts 196°
2026-04-30 08:09 48.99930 2.58248 367 ft 11 kts 236°
2026-04-30 08:09 48.99913 2.58134 363 ft 11 kts 263°
2026-04-30 08:10 48.99906 2.58017 359 ft 11 kts 266°
2026-04-30 08:10 48.99898 2.57883 362 ft 16 kts 265°
2026-04-30 08:10 48.99887 2.57680 367 ft 20 kts 265°
2026-04-30 08:10 48.99876 2.57466 366 ft 20 kts 265°
2026-04-30 08:11 48.99865 2.57252 358 ft 20 kts 265°
2026-04-30 08:11 48.99854 2.57040 362 ft 20 kts 265°
2026-04-30 08:11 48.99843 2.56829 362 ft 20 kts 265°
2026-04-30 08:11 48.99831 2.56620 362 ft 20 kts 265°
2026-04-30 08:12 48.99821 2.56412 359 ft 20 kts 266°
2026-04-30 08:12 48.99810 2.56207 360 ft 19 kts 263°
2026-04-30 08:12 48.99798 2.56003 364 ft 19 kts 270°
2026-04-30 08:12 48.99769 2.55813 367 ft 19 kts 248°
2026-04-30 08:13 48.99747 2.55624 358 ft 18 kts 266°
2026-04-30 08:13 48.99738 2.55439 361 ft 17 kts 266°
2026-04-30 08:13 48.99730 2.55254 364 ft 17 kts 266°
2026-04-30 08:13 48.99710 2.55111 367 ft 8 kts 221°
2026-04-30 08:14 48.99667 2.55129 367 ft 6 kts 134°
2026-04-30 08:14 48.99646 2.55181 362 ft 6 kts 118°
2026-04-30 08:14 48.99623 2.55250 365 ft 9 kts 117°
2026-04-30 08:14 48.99594 2.55335 365 ft 11 kts 117°
2026-04-30 08:15 48.99579 2.55446 362 ft 11 kts 85°
2026-04-30 08:15 48.99591 2.55673 361 ft 43 kts 85°
2026-04-30 08:15 48.99629 2.56391 367 ft 92 kts 85°
2026-04-30 08:15 48.99693 2.57591 357 ft 134 kts 85°
2026-04-30 08:16 48.99778 2.59160 527 ft 155 kts 85°
2026-04-30 08:16 48.99864 2.60799 1061 ft 157 kts 86°
2026-04-30 08:16 48.99946 2.62450 1678 ft 155 kts 90°
2026-04-30 08:16 49.00024 2.64071 2316 ft 150 kts 89°
2026-04-30 08:17 49.00113 2.65692 2735 ft 158 kts 89°
2026-04-30 08:17 49.00205 2.67390 3166 ft 161 kts 88°
2026-04-30 08:17 49.00298 2.69105 3579 ft 167 kts 88°
2026-04-30 08:17 49.00392 2.70972 3768 ft 187 kts 88°
2026-04-30 08:18 49.00501 2.73067 3928 ft 211 kts 88°
2026-04-30 08:18 49.00621 2.75398 4226 ft 231 kts 88°
2026-04-30 08:18 49.00663 2.77892 4747 ft 239 kts 95°
2026-04-30 08:18 49.00471 2.80447 5331 ft 246 kts 99°
2026-04-30 08:19 49.00206 2.83049 5969 ft 253 kts 99°
2026-04-30 08:19 48.99923 2.85704 6727 ft 255 kts 99°
2026-04-30 08:19 48.99639 2.88378 7446 ft 256 kts 100°
2026-04-30 08:19 48.99354 2.91064 8160 ft 260 kts 100°
2026-04-30 08:20 48.99062 2.93806 8827 ft 266 kts 99°
2026-04-30 08:20 48.98663 2.96579 9542 ft 268 kts 110°
2026-04-30 08:20 48.97735 2.99030 10267 ft 270 kts 132°
2026-04-30 08:20 48.96178 3.00716 10706 ft 287 kts 156°
2026-04-30 08:21 48.94160 3.01155 10963 ft 314 kts 182°
2026-04-30 08:21 48.92039 2.99997 11211 ft 340 kts 209°
2026-04-30 08:21 48.90335 2.97377 11455 ft 363 kts 236°
2026-04-30 08:21 48.89400 2.93732 11803 ft 379 kts 255°
2026-04-30 08:22 48.88889 2.89773 12291 ft 386 kts 257°
2026-04-30 08:22 48.88349 2.85762 12919 ft 388 kts 255°
2026-04-30 08:22 48.87740 2.81756 13543 ft 390 kts 255°
2026-04-30 08:22 48.87079 2.77754 14096 ft 393 kts 253°
2026-04-30 08:23 48.86379 2.73719 14542 ft 398 kts 252°
2026-04-30 08:23 48.85653 2.69644 15055 ft 401 kts 252°
2026-04-30 08:23 48.84916 2.65556 15625 ft 402 kts 252°
2026-04-30 08:23 48.84168 2.61453 16109 ft 406 kts 252°
2026-04-30 08:24 48.83410 2.57324 16678 ft 407 kts 252°
2026-04-30 08:24 48.82646 2.53171 17156 ft 410 kts 252°
2026-04-30 08:24 48.81873 2.48985 17602 ft 414 kts 252°
2026-04-30 08:24 48.81089 2.44753 18062 ft 418 kts 252°
2026-04-30 08:25 48.80367 2.40466 18523 ft 423 kts 257°
2026-04-30 08:25 48.80100 2.35990 18902 ft 429 kts 267°
2026-04-30 08:25 48.80080 2.31452 19308 ft 432 kts 269°
2026-04-30 08:25 48.80100 2.26880 19724 ft 435 kts 269°
2026-04-30 08:26 48.80119 2.22286 20155 ft 437 kts 269°
2026-04-30 08:26 48.80131 2.17660 20538 ft 440 kts 268°
2026-04-30 08:26 48.80137 2.12996 20873 ft 444 kts 268°
2026-04-30 08:26 48.80140 2.08293 21266 ft 447 kts 268°
2026-04-30 08:27 48.80139 2.03571 21653 ft 450 kts 268°
2026-04-30 08:27 48.80136 1.98817 22041 ft 452 kts 268°
2026-04-30 08:27 48.80130 1.94038 22425 ft 454 kts 268°
2026-04-30 08:27 48.80122 1.89232 22769 ft 457 kts 268°
2026-04-30 08:28 48.80112 1.84394 23128 ft 460 kts 268°
2026-04-30 08:28 48.80100 1.79536 23501 ft 462 kts 268°
2026-04-30 08:28 48.80086 1.74653 23838 ft 464 kts 268°
2026-04-30 08:28 48.80070 1.69736 24114 ft 467 kts 268°
2026-04-30 08:29 48.80051 1.64803 24433 ft 469 kts 268°
2026-04-30 08:29 48.80030 1.59850 24774 ft 470 kts 268°
2026-04-30 08:29 48.80007 1.54889 25101 ft 471 kts 268°
2026-04-30 08:29 48.79982 1.49908 25429 ft 473 kts 268°
2026-04-30 08:30 48.79955 1.44989 25738 ft 474 kts 268°
2026-04-30 08:30 48.79925 1.39978 26049 ft 475 kts 268°
2026-04-30 08:30 48.79893 1.34961 26350 ft 477 kts 268°
2026-04-30 08:30 48.79859 1.29922 26671 ft 478 kts 268°
2026-04-30 08:31 48.79823 1.24897 27099 ft 476 kts 268°
2026-04-30 08:31 48.79784 1.19870 27428 ft 477 kts 268°
2026-04-30 08:31 48.79744 1.14830 27715 ft 478 kts 268°
2026-04-30 08:31 48.79701 1.09783 27994 ft 480 kts 268°
2026-04-30 08:32 48.79655 1.04716 28280 ft 481 kts 268°
2026-04-30 08:32 48.79608 0.99631 28562 ft 482 kts 268°
2026-04-30 08:32 48.79557 0.94542 28843 ft 483 kts 268°
2026-04-30 08:32 48.79505 0.89436 29109 ft 485 kts 268°
2026-04-30 08:33 48.79450 0.84321 29404 ft 485 kts 268°
2026-04-30 08:33 48.79392 0.79205 29715 ft 486 kts 268°
2026-04-30 08:33 48.79333 0.74075 30011 ft 486 kts 268°
2026-04-30 08:33 48.79271 0.68955 30125 ft 484 kts 268°
2026-04-30 08:34 48.79208 0.63873 30122 ft 481 kts 268°
2026-04-30 08:34 48.79115 0.53735 30120 ft 480 kts 271°
2026-04-30 08:35 48.79586 0.43634 30118 ft 481 kts 274°
2026-04-30 08:35 48.80246 0.33580 30104 ft 475 kts 275°
2026-04-30 08:36 48.80795 0.25330 30105 ft 472 kts 275°
2026-04-30 08:36 48.81425 0.15400 30105 ft 473 kts 274°
2026-04-30 08:37 48.82028 0.05462 30099 ft 472 kts 275°
2026-04-30 08:37 48.82619 -0.04472 30109 ft 474 kts 274°
2026-04-30 08:38 48.83203 -0.14456 30105 ft 475 kts 274°
2026-04-30 08:38 48.83780 -0.24439 30106 ft 476 kts 273°
2026-04-30 08:39 48.84332 -0.34463 30105 ft 476 kts 273°
2026-04-30 08:39 48.84859 -0.44399 30106 ft 475 kts 274°
2026-04-30 08:40 48.85382 -0.54416 30106 ft 476 kts 273°
2026-04-30 08:40 48.85897 -0.64421 30105 ft 475 kts 274°
2026-04-30 08:41 48.86406 -0.74436 30100 ft 476 kts 273°
2026-04-30 08:41 48.86905 -0.84448 30099 ft 475 kts 273°
2026-04-30 08:42 48.87395 -0.94475 30100 ft 479 kts 273°
2026-04-30 08:42 48.87881 -1.04592 30102 ft 480 kts 273°
2026-04-30 08:43 48.88360 -1.14711 30090 ft 481 kts 272°
2026-04-30 08:43 48.88829 -1.24846 30079 ft 480 kts 273°
2026-04-30 08:44 48.89290 -1.34968 30088 ft 480 kts 272°
2026-04-30 08:44 48.89742 -1.45127 30088 ft 483 kts 272°
2026-04-30 08:45 48.90188 -1.55312 30087 ft 483 kts 272°
2026-04-30 08:45 48.90626 -1.65499 30087 ft 483 kts 272°
2026-04-30 08:46 48.90681 -1.75673 30101 ft 480 kts 261°
2026-04-30 08:46 48.89409 -1.85605 30074 ft 479 kts 254°
2026-04-30 08:47 48.87825 -1.95451 30067 ft 480 kts 253°
2026-04-30 08:47 48.86184 -2.05263 30067 ft 479 kts 253°
2026-04-30 08:48 48.84552 -2.15079 30058 ft 479 kts 253°
2026-04-30 08:48 48.82930 -2.24895 30061 ft 479 kts 252°
2026-04-30 08:49 48.81309 -2.34679 30060 ft 477 kts 252°
2026-04-30 08:49 48.79681 -2.44441 30054 ft 477 kts 252°
2026-04-30 08:50 48.78055 -2.54135 30055 ft 478 kts 252°
2026-04-30 08:50 48.76628 -2.63978 30061 ft 479 kts 256°
2026-04-30 08:51 48.75488 -2.73908 30057 ft 477 kts 257°
2026-04-30 08:51 48.74368 -2.83802 30037 ft 476 kts 256°
2026-04-30 08:52 48.73204 -2.93683 30029 ft 476 kts 256°
2026-04-30 08:52 48.72010 -3.03545 30026 ft 476 kts 256°
2026-04-30 08:53 48.70803 -3.13410 30027 ft 477 kts 255°
2026-04-30 08:53 48.69586 -3.23283 30029 ft 477 kts 255°
2026-04-30 08:54 48.68363 -3.33148 30026 ft 477 kts 255°
2026-04-30 08:54 48.67131 -3.43013 30017 ft 477 kts 255°
2026-04-30 08:55 48.65892 -3.52864 30019 ft 477 kts 255°
2026-04-30 08:55 48.64645 -3.62702 30021 ft 476 kts 255°
2026-04-30 08:56 48.63397 -3.72476 30019 ft 476 kts 255°
2026-04-30 08:56 48.62135 -3.82299 29994 ft 476 kts 255°
2026-04-30 08:57 48.60864 -3.92116 30004 ft 476 kts 255°
2026-04-30 08:57 48.59581 -4.01951 29993 ft 478 kts 254°
2026-04-30 08:58 48.58289 -4.11801 29993 ft 478 kts 254°
2026-04-30 08:58 48.56988 -4.21642 29993 ft 478 kts 254°
2026-04-30 08:59 48.55678 -4.31484 29994 ft 478 kts 254°
2026-04-30 08:59 48.54361 -4.41314 30000 ft 477 kts 254°
2026-04-30 09:00 48.53039 -4.51112 30001 ft 476 kts 254°
2026-04-30 09:00 48.51710 -4.60899 30003 ft 476 kts 254°
2026-04-30 09:01 48.50371 -4.70682 30007 ft 476 kts 254°
2026-04-30 09:01 48.49027 -4.80434 30009 ft 476 kts 254°
2026-04-30 09:02 48.46992 -4.95085 30016 ft 476 kts 254°
2026-04-30 09:02 48.45636 -5.04771 30016 ft 476 kts 254°
2026-04-30 09:03 48.44263 -5.14516 30011 ft 476 kts 253°
2026-04-30 09:03 48.42880 -5.24266 30014 ft 475 kts 253°
2026-04-30 09:04 48.41495 -5.33969 30022 ft 474 kts 253°
2026-04-30 09:04 48.40100 -5.43672 30008 ft 474 kts 253°
2026-04-30 09:05 48.38698 -5.53364 30006 ft 474 kts 253°
2026-04-30 09:05 48.37288 -5.63055 30015 ft 474 kts 253°
2026-04-30 09:06 48.35866 -5.72757 30010 ft 475 kts 253°
2026-04-30 09:06 48.34437 -5.82458 30010 ft 475 kts 253°
2026-04-30 09:07 48.32998 -5.92161 30009 ft 476 kts 252°
2026-04-30 09:07 48.31552 -6.01853 30041 ft 476 kts 252°
2026-04-30 09:08 48.30102 -6.11518 30013 ft 473 kts 252°
2026-04-30 09:08 48.28950 -6.21278 30008 ft 475 kts 255°
2026-04-30 09:09 48.27897 -6.31205 30004 ft 489 kts 256°
2026-04-30 09:09 48.26834 -6.41415 30010 ft 501 kts 256°
2026-04-30 09:10 48.25752 -6.51818 30006 ft 505 kts 256°
2026-04-30 09:10 48.24669 -6.62144 29994 ft 503 kts 256°
2026-04-30 09:11 48.23571 -6.72483 30004 ft 501 kts 256°
2026-04-30 09:11 48.22463 -6.82791 30004 ft 500 kts 256°
2026-04-30 09:12 48.21352 -6.93044 30003 ft 496 kts 256°
2026-04-30 09:12 48.20237 -7.03232 29996 ft 495 kts 256°
2026-04-30 09:13 48.19113 -7.13399 29996 ft 494 kts 255°
2026-04-30 09:13 48.17983 -7.23554 29996 ft 494 kts 255°
2026-04-30 09:14 48.16845 -7.33690 29997 ft 493 kts 255°
2026-04-30 09:14 48.15701 -7.43808 29999 ft 492 kts 255°
2026-04-30 09:15 48.14549 -7.53908 29998 ft 492 kts 255°
2026-04-30 09:15 48.13388 -7.63999 29998 ft 492 kts 255°
2026-04-30 09:16 48.12227 -7.74019 30007 ft 491 kts 254°
2026-04-30 09:16 48.11054 -7.84066 29995 ft 490 kts 254°
2026-04-30 09:17 48.09873 -7.94095 29994 ft 489 kts 254°
2026-04-30 09:17 48.08683 -8.04118 29995 ft 489 kts 254°
2026-04-30 09:18 48.07487 -8.14116 30027 ft 487 kts 253°
2026-04-30 09:18 48.06293 -8.24045 29994 ft 478 kts 253°
2026-04-30 09:19 48.05717 -8.28861 29995 ft 462 kts 253°
2026-04-30 09:19 48.05157 -8.33525 30001 ft 452 kts 253°
2026-04-30 09:19 48.04023 -8.42756 29993 ft 452 kts 253°
2026-04-30 09:20 48.02874 -8.52000 29998 ft 453 kts 253°
2026-04-30 09:20 48.01722 -8.61253 29995 ft 453 kts 253°
2026-04-30 09:21 48.00566 -8.70514 29996 ft 454 kts 253°
2026-04-30 09:21 47.99391 -8.79760 29996 ft 453 kts 253°
2026-04-30 09:22 47.98181 -8.88995 29996 ft 453 kts 253°
2026-04-30 09:22 47.96961 -8.98210 29996 ft 453 kts 252°
2026-04-30 09:23 47.95735 -9.07427 29996 ft 453 kts 252°
2026-04-30 09:23 47.94504 -9.16634 29996 ft 453 kts 252°
2026-04-30 09:24 47.93275 -9.25774 29996 ft 453 kts 252°
2026-04-30 09:24 47.92031 -9.34968 30059 ft 452 kts 252°
2026-04-30 09:25 47.90777 -9.44171 29995 ft 453 kts 253°
2026-04-30 09:25 47.89514 -9.53384 29996 ft 454 kts 253°
2026-04-30 09:26 47.86977 -9.71728 29995 ft 453 kts 253°
2026-04-30 09:27 47.85693 -9.80924 29995 ft 454 kts 253°
2026-04-30 09:27 47.84399 -9.90130 29990 ft 455 kts 253°
2026-04-30 09:28 47.83097 -9.99338 29993 ft 455 kts 253°
2026-04-30 09:28 47.82009 -10.06992 29990 ft 455 kts 253°
2026-04-30 09:29 47.80694 -10.16192 29992 ft 454 kts 253°
2026-04-30 09:29 47.79371 -10.25387 29984 ft 454 kts 253°
2026-04-30 09:30 47.78041 -10.34574 29988 ft 455 kts 253°
2026-04-30 09:30 47.76705 -10.43755 29987 ft 454 kts 253°
2026-04-30 09:31 47.75361 -10.52932 29984 ft 454 kts 253°
2026-04-30 09:31 47.74009 -10.62102 29988 ft 455 kts 253°
2026-04-30 09:32 47.72649 -10.71275 29981 ft 455 kts 253°
2026-04-30 09:32 47.71283 -10.80444 29971 ft 453 kts 253°
2026-04-30 09:33 47.69929 -10.89487 29984 ft 446 kts 253°
2026-04-30 09:33 47.68574 -10.98473 30014 ft 446 kts 253°
2026-04-30 09:34 47.67209 -11.07456 29973 ft 447 kts 253°
2026-04-30 09:34 47.65837 -11.16448 29971 ft 447 kts 253°
2026-04-30 09:35 47.64458 -11.25437 29971 ft 447 kts 253°
2026-04-30 09:35 47.63072 -11.34424 29972 ft 447 kts 253°
2026-04-30 09:36 47.61687 -11.43344 29969 ft 447 kts 254°
2026-04-30 09:36 47.60275 -11.52396 29967 ft 448 kts 254°
2026-04-30 09:37 47.58875 -11.61322 29968 ft 448 kts 254°
2026-04-30 09:37 47.57459 -11.70306 29964 ft 448 kts 254°
2026-04-30 09:38 47.56035 -11.79282 29992 ft 448 kts 255°
2026-04-30 09:38 47.54605 -11.88250 29964 ft 447 kts 255°
2026-04-30 09:39 47.53171 -11.97197 29965 ft 447 kts 255°
2026-04-30 09:39 47.51729 -12.06141 29963 ft 447 kts 255°
2026-04-30 09:40 47.50281 -12.15080 29962 ft 447 kts 255°
2026-04-30 09:40 47.48828 -12.23997 29961 ft 444 kts 256°
2026-04-30 09:41 47.47379 -12.32844 29959 ft 442 kts 256°
2026-04-30 09:41 47.45927 -12.41665 29959 ft 442 kts 256°
2026-04-30 09:42 47.44467 -12.50485 29959 ft 442 kts 255°
2026-04-30 09:42 47.43002 -12.59293 29968 ft 442 kts 256°
2026-04-30 09:43 47.41530 -12.68094 29962 ft 441 kts 256°
2026-04-30 09:43 47.40053 -12.76879 29958 ft 441 kts 256°
2026-04-30 09:44 47.38570 -12.85659 29953 ft 441 kts 256°
2026-04-30 09:44 47.37081 -12.94432 29960 ft 441 kts 256°
2026-04-30 09:45 47.35583 -13.03208 29963 ft 441 kts 256°
2026-04-30 09:45 47.34080 -13.11970 29956 ft 441 kts 255°
2026-04-30 09:46 47.32581 -13.20669 29954 ft 441 kts 255°
2026-04-30 09:46 47.31064 -13.29426 29960 ft 441 kts 255°
2026-04-30 09:47 47.29540 -13.38179 29957 ft 441 kts 256°
2026-04-30 09:47 47.28010 -13.46926 29961 ft 441 kts 255°
2026-04-30 09:48 47.26474 -13.55662 29950 ft 441 kts 255°
2026-04-30 09:48 47.24931 -13.64397 29954 ft 441 kts 255°
2026-04-30 09:49 47.23381 -13.73127 29956 ft 441 kts 255°
2026-04-30 09:49 47.21823 -13.81858 29961 ft 442 kts 256°
2026-04-30 09:50 47.20256 -13.90600 29962 ft 442 kts 256°
2026-04-30 09:50 47.18681 -13.99345 29964 ft 442 kts 255°
2026-04-30 09:51 47.17100 -14.08083 29961 ft 442 kts 255°
2026-04-30 09:51 47.15511 -14.16820 29960 ft 443 kts 256°
2026-04-30 09:52 47.13909 -14.25584 29964 ft 446 kts 256°
2026-04-30 09:52 47.12295 -14.34376 29964 ft 446 kts 256°
2026-04-30 09:53 47.10674 -14.43162 29968 ft 446 kts 256°
2026-04-30 09:53 47.09058 -14.51883 29971 ft 446 kts 256°
2026-04-30 09:54 47.07425 -14.60662 29961 ft 447 kts 256°
2026-04-30 09:54 47.05794 -14.69402 29974 ft 442 kts 255°
2026-04-30 09:55 47.04161 -14.78069 29977 ft 441 kts 255°
2026-04-30 09:55 47.02522 -14.86732 29977 ft 441 kts 255°
2026-04-30 09:56 47.00879 -14.95389 29974 ft 441 kts 256°
2026-04-30 09:56 46.99262 -15.04075 29979 ft 443 kts 257°
2026-04-30 09:57 46.97727 -15.12812 29982 ft 443 kts 257°
2026-04-30 09:57 46.96204 -15.21544 29982 ft 443 kts 257°
2026-04-30 09:58 46.94665 -15.30269 29989 ft 443 kts 257°
2026-04-30 09:58 46.93111 -15.38996 29987 ft 444 kts 258°
2026-04-30 09:59 46.89968 -15.56499 29992 ft 445 kts 258°
2026-04-30 10:00 46.87593 -15.69612 29970 ft 445 kts 258°
2026-04-30 10:01 46.85193 -15.82778 30003 ft 449 kts 258°
2026-04-30 10:02 46.82765 -15.95995 30006 ft 449 kts 258°
2026-04-30 10:02 46.81138 -16.04800 30011 ft 449 kts 258°
2026-04-30 10:03 46.79503 -16.13601 30010 ft 449 kts 258°
2026-04-30 10:03 46.77876 -16.22327 30018 ft 449 kts 258°
2026-04-30 10:04 46.76219 -16.31169 30020 ft 449 kts 258°
2026-04-30 10:04 46.74577 -16.39890 30020 ft 449 kts 258°
2026-04-30 10:05 46.72918 -16.48662 30005 ft 449 kts 259°
2026-04-30 10:05 46.71251 -16.57431 30027 ft 449 kts 259°
2026-04-30 10:06 46.69577 -16.66201 30026 ft 449 kts 259°
2026-04-30 10:06 46.67895 -16.74973 30025 ft 449 kts 259°
2026-04-30 10:07 46.66207 -16.83733 30028 ft 450 kts 259°
2026-04-30 10:07 46.64512 -16.92491 30036 ft 450 kts 259°
2026-04-30 10:08 46.62810 -17.01243 30037 ft 450 kts 259°
2026-04-30 10:08 46.61100 -17.09996 30039 ft 450 kts 259°
2026-04-30 10:09 46.59384 -17.18740 30039 ft 450 kts 258°
2026-04-30 10:09 46.57662 -17.27468 30049 ft 448 kts 260°
2026-04-30 10:10 46.55945 -17.36132 30053 ft 446 kts 260°
2026-04-30 10:10 46.54225 -17.44785 30056 ft 446 kts 260°
2026-04-30 10:11 46.52498 -17.53439 30055 ft 446 kts 260°
2026-04-30 10:11 46.50775 -17.62026 30035 ft 446 kts 260°
2026-04-30 10:12 46.49029 -17.70693 30059 ft 448 kts 260°
2026-04-30 10:12 46.47273 -17.79374 30059 ft 448 kts 260°
2026-04-30 10:13 46.45509 -17.88044 30067 ft 448 kts 260°
2026-04-30 10:13 46.43739 -17.96715 30006 ft 448 kts 260°
2026-04-30 10:14 46.41955 -18.05420 30070 ft 453 kts 259°
2026-04-30 10:14 46.39247 -18.18555 30075 ft 454 kts 259°
2026-04-30 10:15 46.37428 -18.27308 30077 ft 454 kts 259°
2026-04-30 10:15 46.35607 -18.36050 30052 ft 454 kts 259°
2026-04-30 10:16 46.33769 -18.44860 30076 ft 459 kts 258°
2026-04-30 10:17 46.30980 -18.58124 30084 ft 459 kts 258°
2026-04-30 10:17 46.28492 -18.69880 30088 ft 460 kts 258°
2026-04-30 10:18 46.26611 -18.78731 30089 ft 462 kts 257°
2026-04-30 10:19 46.23761 -18.92064 30090 ft 463 kts 257°
2026-04-30 10:19 46.21850 -19.00952 30092 ft 463 kts 257°
2026-04-30 10:20 46.19932 -19.09834 30082 ft 464 kts 257°
2026-04-30 10:20 46.17031 -19.23209 30092 ft 467 kts 257°
2026-04-30 10:21 46.15079 -19.32150 30093 ft 467 kts 257°
2026-04-30 10:21 46.13124 -19.41070 30093 ft 467 kts 257°
2026-04-30 10:22 46.11165 -19.49991 30107 ft 467 kts 256°
2026-04-30 10:22 46.09191 -19.58920 30092 ft 468 kts 255°
2026-04-30 10:23 46.07222 -19.67784 30100 ft 468 kts 255°
2026-04-30 10:23 46.05234 -19.76697 30095 ft 468 kts 255°
2026-04-30 10:24 46.03237 -19.85625 30099 ft 470 kts 255°
2026-04-30 10:24 46.01222 -19.94597 30097 ft 472 kts 255°
2026-04-30 10:25 45.98838 -20.03412 30100 ft 474 kts 248°
2026-04-30 10:25 45.96046 -20.12011 30099 ft 475 kts 247°
2026-04-30 10:26 45.93175 -20.20564 30102 ft 475 kts 246°
2026-04-30 10:26 45.90294 -20.29111 30102 ft 476 kts 246°
2026-04-30 10:27 45.87415 -20.37658 30099 ft 476 kts 246°
2026-04-30 10:27 45.84535 -20.46199 30097 ft 476 kts 246°
2026-04-30 10:28 45.81648 -20.54736 30097 ft 476 kts 246°
2026-04-30 10:28 45.78755 -20.63263 30097 ft 476 kts 246°
2026-04-30 10:29 45.75854 -20.71788 30099 ft 476 kts 246°
2026-04-30 10:29 45.72946 -20.80300 30099 ft 476 kts 246°
2026-04-30 10:30 45.70031 -20.88809 30103 ft 477 kts 245°
2026-04-30 10:30 45.67108 -20.97314 30097 ft 478 kts 245°
2026-04-30 10:31 45.64168 -21.05840 30097 ft 478 kts 245°
2026-04-30 10:31 45.61224 -21.14349 30097 ft 478 kts 245°
2026-04-30 10:32 45.58272 -21.22857 30097 ft 479 kts 245°
2026-04-30 10:32 45.55311 -21.31362 30097 ft 478 kts 245°
2026-04-30 10:33 45.52345 -21.39853 30097 ft 478 kts 244°
2026-04-30 10:33 45.49373 -21.48335 30097 ft 478 kts 244°
2026-04-30 10:34 45.46389 -21.56827 30092 ft 480 kts 244°
2026-04-30 10:34 45.43390 -21.65331 30091 ft 481 kts 244°
2026-04-30 10:35 45.40385 -21.73828 30089 ft 481 kts 244°
2026-04-30 10:35 45.37371 -21.82321 30085 ft 481 kts 244°
2026-04-30 10:36 45.34346 -21.90821 30088 ft 482 kts 244°
2026-04-30 10:36 45.31309 -21.99326 30089 ft 483 kts 244°
2026-04-30 10:37 45.28284 -22.07770 30083 ft 483 kts 243°
2026-04-30 10:37 45.25233 -22.16262 30083 ft 483 kts 243°
2026-04-30 10:38 45.22171 -22.24757 30083 ft 484 kts 243°
2026-04-30 10:38 45.19099 -22.33252 30080 ft 484 kts 243°
2026-04-30 10:39 45.16023 -22.41732 30080 ft 484 kts 243°
2026-04-30 10:39 45.12938 -22.50215 30081 ft 485 kts 243°
2026-04-30 10:40 45.09839 -22.58704 30077 ft 486 kts 243°
2026-04-30 10:40 45.06733 -22.67187 30075 ft 486 kts 242°
2026-04-30 10:41 45.03619 -22.75665 30075 ft 486 kts 242°
2026-04-30 10:41 45.00496 -22.84143 30072 ft 486 kts 242°
2026-04-30 10:42 44.97366 -22.92615 30072 ft 487 kts 242°
2026-04-30 10:42 44.94224 -23.01090 30072 ft 487 kts 242°
2026-04-30 10:43 44.91099 -23.09495 30070 ft 487 kts 242°
2026-04-30 10:43 44.87941 -23.17962 30064 ft 489 kts 242°
2026-04-30 10:44 44.84771 -23.26435 30064 ft 489 kts 242°
2026-04-30 10:44 44.81593 -23.34905 30061 ft 489 kts 242°
2026-04-30 10:45 44.78408 -23.43364 30057 ft 489 kts 242°
2026-04-30 10:45 44.75201 -23.51858 30059 ft 493 kts 242°
2026-04-30 10:46 44.71974 -23.60380 30059 ft 493 kts 241°
2026-04-30 10:46 44.68740 -23.68891 30059 ft 493 kts 241°
2026-04-30 10:47 44.65504 -23.77384 30050 ft 493 kts 241°
2026-04-30 10:47 44.62258 -23.85877 30061 ft 493 kts 241°
2026-04-30 10:48 44.59009 -23.94351 30054 ft 493 kts 241°
2026-04-30 10:48 44.55753 -24.02817 30054 ft 493 kts 240°
2026-04-30 10:49 44.52486 -24.11285 30046 ft 494 kts 240°
2026-04-30 10:49 44.49231 -24.19696 30043 ft 494 kts 240°
2026-04-30 10:50 44.45952 -24.28147 30040 ft 490 kts 240°
2026-04-30 10:50 44.42720 -24.36451 30042 ft 484 kts 240°
2026-04-30 10:51 44.39490 -24.44725 30041 ft 485 kts 240°
2026-04-30 10:51 44.36251 -24.52995 30033 ft 485 kts 240°
2026-04-30 10:52 44.33008 -24.61252 30034 ft 485 kts 240°
2026-04-30 10:52 44.29757 -24.69508 30028 ft 486 kts 240°
2026-04-30 10:53 44.26489 -24.77778 30029 ft 487 kts 240°
2026-04-30 10:53 44.23213 -24.86048 30028 ft 487 kts 240°
2026-04-30 10:54 44.19934 -24.94299 30018 ft 487 kts 240°
2026-04-30 10:54 44.16640 -25.02566 30012 ft 489 kts 239°
2026-04-30 10:55 44.13335 -25.10835 30019 ft 489 kts 239°
2026-04-30 10:55 44.10030 -25.19077 30016 ft 487 kts 239°
2026-04-30 10:56 44.06726 -25.27297 30019 ft 487 kts 239°
2026-04-30 10:56 44.03409 -25.35524 30011 ft 488 kts 239°
2026-04-30 10:57 44.00082 -25.43753 30018 ft 488 kts 239°
2026-04-30 10:57 43.96774 -25.51910 30009 ft 488 kts 239°
2026-04-30 10:58 43.93432 -25.60127 30010 ft 490 kts 239°
2026-04-30 10:58 43.90071 -25.68366 30003 ft 491 kts 239°
2026-04-30 10:59 43.86704 -25.76598 30010 ft 491 kts 239°
2026-04-30 10:59 43.83333 -25.84817 30009 ft 491 kts 239°
2026-04-30 11:00 43.79940 -25.93061 30002 ft 494 kts 239°
2026-04-30 11:00 43.76535 -26.01314 30000 ft 494 kts 239°
2026-04-30 11:01 43.73126 -26.09553 29992 ft 493 kts 239°
2026-04-30 11:01 43.69712 -26.17782 29991 ft 494 kts 239°
2026-04-30 11:02 43.66282 -26.26022 29989 ft 495 kts 239°
2026-04-30 11:02 43.62848 -26.34250 29990 ft 495 kts 239°
2026-04-30 11:03 43.59407 -26.42470 29982 ft 495 kts 239°
2026-04-30 11:04 43.54214 -26.54832 29984 ft 497 kts 239°
2026-04-30 11:04 43.50743 -26.63067 29979 ft 497 kts 239°
2026-04-30 11:05 43.47265 -26.71295 29978 ft 497 kts 239°
2026-04-30 11:05 43.43803 -26.79459 29972 ft 497 kts 238°
2026-04-30 11:06 43.40313 -26.87669 29970 ft 497 kts 238°
2026-04-30 11:06 43.36818 -26.95866 29974 ft 497 kts 238°
2026-04-30 11:07 43.33881 -27.02735 29968 ft 498 kts 238°
2026-04-30 11:07 43.30362 -27.10946 29960 ft 499 kts 238°
2026-04-30 11:08 43.26836 -27.19149 29956 ft 499 kts 238°
2026-04-30 11:08 43.23307 -27.27338 29953 ft 499 kts 238°
2026-04-30 11:09 43.19768 -27.35525 29947 ft 499 kts 238°
2026-04-30 11:09 43.16224 -27.43701 29957 ft 499 kts 238°
2026-04-30 11:10 43.12699 -27.51812 29962 ft 500 kts 238°
2026-04-30 11:10 43.09125 -27.60010 29949 ft 503 kts 238°
2026-04-30 11:11 43.05534 -27.68225 29949 ft 503 kts 238°
2026-04-30 11:11 43.01939 -27.76427 29944 ft 503 kts 238°
2026-04-30 11:12 42.98338 -27.84621 29941 ft 503 kts 238°
2026-04-30 11:12 42.94727 -27.92812 29939 ft 504 kts 238°
2026-04-30 11:13 42.91107 -28.01000 29933 ft 504 kts 238°
2026-04-30 11:13 42.87482 -28.09180 29933 ft 504 kts 238°
2026-04-30 11:14 42.83854 -28.17342 29933 ft 504 kts 238°
2026-04-30 11:14 42.80215 -28.25505 29933 ft 504 kts 238°
2026-04-30 11:15 42.76574 -28.33652 29927 ft 504 kts 238°
2026-04-30 11:15 42.72927 -28.41791 29926 ft 504 kts 238°
2026-04-30 11:16 42.69274 -28.49918 29923 ft 503 kts 238°
2026-04-30 11:16 42.65619 -28.58029 29923 ft 503 kts 238°
2026-04-30 11:17 42.61955 -28.66136 29926 ft 504 kts 238°
2026-04-30 11:17 42.58272 -28.74263 29915 ft 507 kts 237°
2026-04-30 11:18 42.54574 -28.82403 29921 ft 507 kts 237°
2026-04-30 11:18 42.49021 -28.94582 29916 ft 506 kts 237°
2026-04-30 11:19 42.45317 -29.02678 29909 ft 506 kts 237°
2026-04-30 11:19 42.41607 -29.10766 29909 ft 505 kts 237°
2026-04-30 11:20 42.37894 -29.18837 29911 ft 505 kts 237°
2026-04-30 11:20 42.34185 -29.26878 29914 ft 504 kts 237°
2026-04-30 11:21 42.30476 -29.34900 29911 ft 504 kts 237°
2026-04-30 11:21 42.26756 -29.42920 29908 ft 504 kts 237°
2026-04-30 11:22 42.23032 -29.50930 29908 ft 504 kts 237°
2026-04-30 11:22 42.19304 -29.58926 29908 ft 504 kts 237°
2026-04-30 11:23 42.15569 -29.66916 29893 ft 504 kts 237°
2026-04-30 11:24 42.09959 -29.78879 29903 ft 505 kts 237°
2026-04-30 11:24 42.06197 -29.86874 29902 ft 506 kts 237°
2026-04-30 11:25 42.00573 -29.98787 29902 ft 504 kts 237°
2026-04-30 11:26 41.93536 -30.15079 29902 ft 504 kts 240°
2026-04-30 11:26 41.90090 -30.23270 29899 ft 503 kts 240°
2026-04-30 11:27 41.86626 -30.31414 29899 ft 502 kts 240°
2026-04-30 11:27 41.83146 -30.39535 29900 ft 502 kts 240°
2026-04-30 11:28 41.77918 -30.51683 29901 ft 500 kts 239°
2026-04-30 11:29 41.74440 -30.59741 29901 ft 499 kts 239°
2026-04-30 11:29 41.69215 -30.71807 29907 ft 499 kts 239°
2026-04-30 11:30 41.63990 -30.83825 29905 ft 497 kts 239°
2026-04-30 11:31 41.60509 -30.91806 29906 ft 497 kts 239°
2026-04-30 11:31 41.57019 -30.99785 29897 ft 497 kts 239°
2026-04-30 11:32 41.53534 -31.07729 29918 ft 496 kts 239°
2026-04-30 11:32 41.50035 -31.15687 29905 ft 498 kts 239°
2026-04-30 11:33 41.44772 -31.27620 29908 ft 496 kts 239°
2026-04-30 11:33 41.41272 -31.35526 29910 ft 495 kts 239°
2026-04-30 11:34 41.37769 -31.43420 29913 ft 495 kts 239°
2026-04-30 11:34 41.34262 -31.51301 29908 ft 494 kts 239°
2026-04-30 11:35 41.30765 -31.59141 29915 ft 492 kts 239°
2026-04-30 11:35 41.27269 -31.66957 29915 ft 492 kts 239°
2026-04-30 11:36 41.23769 -31.74762 29908 ft 492 kts 238°
2026-04-30 11:36 41.20298 -31.82484 29912 ft 489 kts 238°
2026-04-30 11:37 41.16810 -31.90222 29913 ft 488 kts 238°
2026-04-30 11:37 41.13319 -31.97949 29916 ft 488 kts 238°
2026-04-30 11:38 41.09821 -32.05670 29908 ft 488 kts 238°
2026-04-30 11:38 41.06319 -32.13382 29908 ft 488 kts 238°
2026-04-30 11:39 41.02812 -32.21083 29911 ft 488 kts 238°
2026-04-30 11:39 40.99303 -32.28771 29926 ft 486 kts 238°
2026-04-30 11:40 40.95807 -32.36412 29930 ft 485 kts 238°
2026-04-30 11:40 40.92312 -32.44029 29938 ft 485 kts 238°
2026-04-30 11:41 40.88801 -32.51662 29930 ft 485 kts 238°
2026-04-30 11:41 40.85302 -32.59252 29933 ft 483 kts 238°
2026-04-30 11:42 40.81808 -32.66813 29934 ft 482 kts 238°
2026-04-30 11:42 40.78306 -32.74370 29932 ft 482 kts 237°
2026-04-30 11:43 40.74813 -32.81891 29937 ft 479 kts 237°
2026-04-30 11:43 40.71327 -32.89378 29936 ft 479 kts 237°
2026-04-30 11:44 40.67841 -32.96848 29937 ft 479 kts 237°
2026-04-30 11:44 40.64360 -33.04289 29939 ft 475 kts 237°
2026-04-30 11:45 40.60899 -33.11668 29938 ft 473 kts 237°
2026-04-30 11:45 40.57436 -33.19033 29939 ft 473 kts 237°
2026-04-30 11:46 40.53972 -33.26385 29943 ft 472 kts 236°
2026-04-30 11:46 40.50540 -33.33650 29944 ft 471 kts 236°
2026-04-30 11:47 40.47082 -33.40952 29941 ft 471 kts 236°
2026-04-30 11:47 40.43622 -33.48243 29939 ft 471 kts 236°
2026-04-30 11:48 40.40157 -33.55528 29944 ft 470 kts 236°
2026-04-30 11:48 40.36688 -33.62803 29945 ft 470 kts 236°
2026-04-30 11:49 40.33214 -33.70071 29950 ft 470 kts 236°
2026-04-30 11:49 40.29759 -33.77285 29947 ft 465 kts 236°
2026-04-30 11:50 40.26319 -33.84449 29946 ft 464 kts 236°
2026-04-30 11:50 40.22875 -33.91603 29947 ft 464 kts 236°
2026-04-30 11:51 40.19440 -33.98724 29946 ft 460 kts 236°
2026-04-30 11:51 40.16029 -34.05779 29947 ft 458 kts 237°
2026-04-30 11:52 40.13195 -34.11629 29947 ft 458 kts 236°
2026-04-30 11:52 40.09781 -34.18658 29947 ft 457 kts 239°
2026-04-30 11:53 40.06398 -34.25608 29947 ft 451 kts 239°
2026-04-30 11:53 40.03031 -34.32516 29945 ft 451 kts 239°
2026-04-30 11:54 39.99663 -34.39412 29947 ft 451 kts 239°
2026-04-30 11:54 39.96287 -34.46306 29946 ft 451 kts 239°
2026-04-30 11:55 39.92907 -34.53190 29950 ft 451 kts 239°
2026-04-30 11:55 39.89524 -34.60067 29949 ft 451 kts 239°
2026-04-30 11:56 39.86141 -34.66925 29943 ft 447 kts 240°
2026-04-30 11:56 39.82801 -34.73682 29947 ft 442 kts 240°
2026-04-30 11:57 39.79471 -34.80410 29949 ft 442 kts 240°
2026-04-30 11:57 39.76139 -34.87127 29945 ft 442 kts 241°
2026-04-30 11:58 39.72826 -34.93786 29947 ft 437 kts 241°
2026-04-30 11:58 39.69531 -35.00399 29945 ft 436 kts 241°
2026-04-30 11:59 39.66261 -35.06950 29949 ft 435 kts 241°
2026-04-30 11:59 39.62973 -35.13522 29950 ft 433 kts 241°
2026-04-30 12:00 39.59698 -35.20053 29958 ft 432 kts 241°
2026-04-30 12:00 39.56423 -35.26573 29953 ft 432 kts 241°
2026-04-30 12:01 39.53141 -35.33092 29947 ft 431 kts 241°
2026-04-30 12:01 39.49880 -35.39552 29952 ft 427 kts 241°
2026-04-30 12:02 39.46628 -35.45985 29957 ft 427 kts 241°
2026-04-30 12:02 39.43374 -35.52411 29955 ft 427 kts 241°
2026-04-30 12:03 39.38501 -35.62005 29963 ft 424 kts 241°
2026-04-30 12:04 39.35261 -35.68370 29960 ft 424 kts 241°
2026-04-30 12:04 39.32018 -35.74729 29960 ft 424 kts 241°
2026-04-30 12:05 39.28771 -35.81081 29963 ft 423 kts 241°
2026-04-30 12:05 39.25527 -35.87414 29963 ft 423 kts 241°
2026-04-30 12:06 39.22282 -35.93738 29966 ft 423 kts 240°
2026-04-30 12:06 39.19033 -36.00058 29965 ft 423 kts 240°
2026-04-30 12:07 39.15773 -36.06387 29971 ft 424 kts 240°
2026-04-30 12:07 39.12529 -36.12671 29971 ft 424 kts 240°
2026-04-30 12:08 39.09259 -36.18993 29955 ft 424 kts 240°
2026-04-30 12:08 39.05981 -36.25319 29979 ft 426 kts 240°
2026-04-30 12:09 39.02689 -36.31658 29979 ft 426 kts 240°
2026-04-30 12:09 38.99390 -36.37996 29980 ft 426 kts 240°
2026-04-30 12:10 38.96089 -36.44328 29979 ft 427 kts 239°
2026-04-30 12:10 38.92779 -36.50665 29980 ft 427 kts 239°
2026-04-30 12:11 38.89464 -36.56999 29980 ft 427 kts 239°
2026-04-30 12:11 38.86146 -36.63326 29980 ft 427 kts 239°
2026-04-30 12:12 38.82822 -36.69652 29985 ft 427 kts 239°
2026-04-30 12:12 38.79497 -36.75967 29985 ft 427 kts 239°
2026-04-30 12:13 38.76168 -36.82278 29985 ft 427 kts 239°
2026-04-30 12:13 38.72854 -36.88548 29989 ft 429 kts 239°
2026-04-30 12:14 38.69507 -36.94869 29985 ft 429 kts 239°
2026-04-30 12:14 38.66156 -37.01184 29990 ft 429 kts 239°
2026-04-30 12:15 38.62798 -37.07501 29990 ft 430 kts 238°
2026-04-30 12:15 38.59417 -37.13850 29989 ft 432 kts 238°
2026-04-30 12:16 38.56026 -37.20201 29992 ft 432 kts 238°
2026-04-30 12:16 38.52633 -37.26545 29998 ft 433 kts 238°
2026-04-30 12:17 38.47516 -37.36092 29997 ft 435 kts 238°
2026-04-30 12:17 38.44095 -37.42458 29993 ft 435 kts 237°
2026-04-30 12:18 38.40673 -37.48812 29991 ft 434 kts 237°
2026-04-30 12:18 38.37248 -37.55161 30002 ft 435 kts 237°
2026-04-30 12:19 38.33817 -37.61507 30002 ft 435 kts 237°
2026-04-30 12:19 38.30405 -37.67807 30003 ft 435 kts 237°
2026-04-30 12:20 38.26946 -37.74183 30002 ft 435 kts 237°
2026-04-30 12:20 38.23520 -37.80483 30004 ft 436 kts 237°
2026-04-30 12:21 38.20067 -37.86823 30002 ft 436 kts 237°
2026-04-30 12:21 38.16609 -37.93157 30008 ft 436 kts 237°
2026-04-30 12:22 38.13147 -37.99488 30004 ft 436 kts 236°
2026-04-30 12:22 38.09678 -38.05820 30004 ft 437 kts 236°
2026-04-30 12:23 38.06202 -38.12151 30004 ft 437 kts 236°
2026-04-30 12:23 38.02724 -38.18474 30004 ft 437 kts 236°
2026-04-30 12:24 37.99241 -38.24794 30004 ft 438 kts 236°
2026-04-30 12:24 37.95750 -38.31117 30004 ft 438 kts 236°
2026-04-30 12:25 37.92256 -38.37434 30005 ft 438 kts 236°
2026-04-30 12:25 37.88760 -38.43741 30001 ft 438 kts 236°
2026-04-30 12:26 37.85258 -38.50047 30004 ft 438 kts 236°
2026-04-30 12:26 37.81751 -38.56350 30005 ft 438 kts 236°
2026-04-30 12:27 37.78264 -38.62604 30004 ft 438 kts 236°
2026-04-30 12:27 37.74753 -38.68892 30003 ft 438 kts 236°
2026-04-30 12:28 37.71238 -38.75173 30004 ft 437 kts 236°
2026-04-30 12:28 37.67725 -38.81438 30003 ft 437 kts 236°
2026-04-30 12:29 37.64205 -38.87706 30002 ft 437 kts 236°
2026-04-30 12:29 37.60685 -38.93961 30005 ft 437 kts 236°
2026-04-30 12:30 37.57160 -39.00213 30002 ft 437 kts 236°
2026-04-30 12:30 37.53633 -39.06458 30004 ft 437 kts 235°
2026-04-30 12:31 37.50103 -39.12694 30002 ft 437 kts 235°
2026-04-30 12:31 37.46573 -39.18920 30002 ft 437 kts 235°
2026-04-30 12:32 37.43040 -39.25140 30002 ft 437 kts 235°
2026-04-30 12:32 37.39503 -39.31355 29999 ft 437 kts 235°
2026-04-30 12:33 37.35965 -39.37559 29995 ft 436 kts 235°
2026-04-30 12:33 37.32456 -39.43702 29996 ft 435 kts 235°
2026-04-30 12:34 37.28927 -39.49869 29995 ft 435 kts 235°
2026-04-30 12:34 37.25398 -39.56023 29993 ft 433 kts 236°
2026-04-30 12:35 37.21884 -39.62139 29991 ft 431 kts 236°
2026-04-30 12:35 37.18378 -39.68234 29993 ft 431 kts 236°
2026-04-30 12:36 37.14868 -39.74325 29993 ft 431 kts 236°
2026-04-30 12:36 37.11354 -39.80410 29993 ft 431 kts 236°
2026-04-30 12:37 37.07834 -39.86494 29990 ft 431 kts 235°
2026-04-30 12:37 37.04310 -39.92573 29990 ft 432 kts 235°
2026-04-30 12:38 37.00781 -39.98651 29985 ft 431 kts 235°
2026-04-30 12:38 36.97304 -40.04766 29982 ft 431 kts 236°
2026-04-30 12:39 36.93879 -40.10917 29989 ft 431 kts 236°
2026-04-30 12:39 36.90454 -40.17063 29982 ft 431 kts 236°
2026-04-30 12:40 36.87019 -40.23200 29977 ft 431 kts 236°
2026-04-30 12:40 36.83579 -40.29323 29980 ft 431 kts 236°
2026-04-30 12:41 36.80135 -40.35440 29976 ft 431 kts 236°
2026-04-30 12:41 36.77271 -40.40520 29976 ft 431 kts 236°
2026-04-30 12:42 36.73820 -40.46629 29971 ft 431 kts 236°
2026-04-30 12:42 36.69789 -40.53754 29971 ft 430 kts 235°
2026-04-30 12:43 36.66928 -40.58802 29972 ft 429 kts 235°
2026-04-30 12:43 36.63482 -40.64871 29968 ft 429 kts 235°
2026-04-30 12:44 36.60039 -40.70924 29977 ft 427 kts 235°
2026-04-30 12:44 36.56608 -40.76944 29957 ft 426 kts 235°
2026-04-30 12:45 36.53183 -40.82945 29955 ft 426 kts 235°
2026-04-30 12:45 36.49753 -40.88944 29971 ft 426 kts 235°
2026-04-30 12:46 36.46344 -40.94896 29958 ft 424 kts 235°
2026-04-30 12:46 36.42927 -41.00849 29950 ft 423 kts 235°
2026-04-30 12:47 36.39513 -41.06788 29955 ft 422 kts 235°
2026-04-30 12:47 36.36098 -41.12719 29956 ft 422 kts 235°
2026-04-30 12:48 36.32679 -41.18647 29954 ft 422 kts 235°
2026-04-30 12:48 36.29259 -41.24566 29952 ft 422 kts 235°
2026-04-30 12:49 36.25834 -41.30483 29944 ft 422 kts 235°
2026-04-30 12:49 36.22410 -41.36388 29936 ft 422 kts 235°
2026-04-30 12:50 36.18992 -41.42273 29938 ft 420 kts 235°
2026-04-30 12:50 36.15582 -41.48134 29939 ft 420 kts 235°
2026-04-30 12:51 36.12165 -41.53996 29933 ft 420 kts 235°
2026-04-30 12:51 36.08749 -41.59848 29933 ft 419 kts 235°
2026-04-30 12:52 36.05340 -41.65676 29926 ft 418 kts 235°
2026-04-30 12:52 36.01955 -41.71455 29924 ft 418 kts 235°
2026-04-30 12:53 35.98544 -41.77270 29925 ft 418 kts 235°
2026-04-30 12:53 35.95131 -41.83077 29918 ft 418 kts 234°
2026-04-30 12:54 35.91713 -41.88884 29915 ft 418 kts 234°
2026-04-30 12:54 35.88288 -41.94689 29911 ft 418 kts 234°
2026-04-30 12:55 35.84862 -42.00489 29908 ft 419 kts 234°
2026-04-30 12:55 35.81416 -42.06312 29909 ft 421 kts 233°
2026-04-30 12:56 35.77960 -42.12143 29908 ft 422 kts 233°
2026-04-30 12:56 35.74498 -42.17973 29905 ft 422 kts 233°
2026-04-30 12:57 35.71035 -42.23796 29900 ft 422 kts 233°
2026-04-30 12:57 35.67562 -42.29627 29896 ft 422 kts 233°
2026-04-30 12:58 35.64088 -42.35448 29894 ft 422 kts 233°
2026-04-30 12:58 35.60608 -42.41270 29892 ft 422 kts 233°
2026-04-30 12:59 35.57123 -42.47090 29886 ft 423 kts 233°
2026-04-30 12:59 35.53632 -42.52912 29887 ft 423 kts 233°
2026-04-30 13:00 35.50139 -42.58727 29884 ft 423 kts 233°
2026-04-30 13:00 35.46641 -42.64541 29882 ft 424 kts 233°
2026-04-30 13:01 35.43144 -42.70340 29874 ft 426 kts 233°
2026-04-30 13:01 35.39616 -42.76184 29873 ft 426 kts 233°
2026-04-30 13:02 35.36086 -42.82021 29868 ft 426 kts 233°
2026-04-30 13:02 35.32544 -42.87869 29862 ft 428 kts 233°
2026-04-30 13:03 35.28990 -42.93726 29861 ft 429 kts 233°
2026-04-30 13:03 35.25432 -42.99580 29852 ft 428 kts 233°
2026-04-30 13:04 35.21874 -43.05425 29855 ft 428 kts 232°
2026-04-30 13:04 35.18315 -43.11261 29857 ft 428 kts 232°
2026-04-30 13:05 35.14753 -43.17091 29854 ft 428 kts 232°
2026-04-30 13:06 35.09409 -43.25822 29845 ft 428 kts 232°
2026-04-30 13:06 35.05841 -43.31638 29843 ft 428 kts 232°
2026-04-30 13:07 35.02269 -43.37452 29838 ft 428 kts 232°
2026-04-30 13:07 34.98696 -43.43258 29835 ft 428 kts 232°
2026-04-30 13:08 34.95120 -43.49059 29831 ft 428 kts 232°
2026-04-30 13:08 34.91536 -43.54864 29832 ft 428 kts 232°
2026-04-30 13:09 34.87952 -43.60658 29824 ft 428 kts 232°
2026-04-30 13:09 34.84367 -43.66446 29819 ft 428 kts 232°
2026-04-30 13:10 34.80781 -43.72226 29817 ft 428 kts 232°
2026-04-30 13:10 34.77197 -43.77993 29809 ft 428 kts 231°
2026-04-30 13:11 34.73607 -43.83760 29809 ft 427 kts 232°
2026-04-30 13:11 34.70044 -43.89475 29810 ft 427 kts 231°
2026-04-30 13:12 34.66457 -43.95217 29800 ft 427 kts 232°
2026-04-30 13:12 34.62866 -44.00957 29795 ft 427 kts 232°
2026-04-30 13:13 34.57474 -44.09556 29786 ft 426 kts 231°
2026-04-30 13:14 34.52090 -44.18129 29782 ft 426 kts 231°
2026-04-30 13:14 34.46698 -44.26692 29778 ft 427 kts 231°
2026-04-30 13:15 34.41285 -44.35265 29774 ft 427 kts 231°
2026-04-30 13:16 34.37671 -44.40979 29772 ft 427 kts 231°
2026-04-30 13:16 34.34048 -44.46696 29769 ft 429 kts 231°
2026-04-30 13:17 34.28590 -44.55293 29766 ft 430 kts 231°
2026-04-30 13:18 34.23121 -44.63887 29749 ft 430 kts 231°
2026-04-30 13:18 34.17632 -44.72492 29747 ft 431 kts 231°
2026-04-30 13:19 34.13966 -44.78226 29760 ft 431 kts 231°
2026-04-30 13:19 34.10300 -44.83953 29760 ft 432 kts 231°
2026-04-30 13:20 34.06623 -44.89687 29749 ft 432 kts 231°
2026-04-30 13:20 34.02942 -44.95419 29752 ft 432 kts 231°
2026-04-30 13:21 33.99293 -45.01178 29752 ft 432 kts 233°
2026-04-30 13:22 33.94256 -45.10089 29754 ft 430 kts 235°
2026-04-30 13:22 33.89278 -45.19060 29749 ft 429 kts 234°
2026-04-30 13:23 33.84265 -45.27964 29756 ft 428 kts 234°
2026-04-30 13:24 33.80910 -45.33894 30000 ft 432 kts 234°
2026-04-30 13:24 33.77507 -45.39898 30562 ft 436 kts 234°
2026-04-30 13:25 33.74087 -45.45929 31127 ft 438 kts 234°
2026-04-30 13:25 33.70639 -45.51998 31705 ft 440 kts 235°
2026-04-30 13:26 33.65493 -45.61036 32965 ft 434 kts 235°
2026-04-30 13:26 33.62094 -45.66996 33656 ft 432 kts 236°
2026-04-30 13:27 33.58703 -45.72930 34236 ft 431 kts 236°
2026-04-30 13:28 33.53617 -45.81812 34958 ft 432 kts 236°
2026-04-30 13:28 33.50216 -45.87741 35443 ft 432 kts 236°
2026-04-30 13:28 33.48514 -45.90703 35700 ft 431 kts 236°
2026-04-30 13:29 33.45140 -45.96569 36221 ft 429 kts 237°
2026-04-30 13:29 33.41752 -46.02449 36709 ft 429 kts 237°
2026-04-30 13:30 33.36664 -46.11267 37364 ft 429 kts 237°
2026-04-30 13:31 33.33273 -46.17129 37855 ft 428 kts 238°
2026-04-30 13:31 33.28738 -46.24956 38398 ft 428 kts 238°
2026-04-30 13:32 33.25343 -46.30805 38698 ft 429 kts 238°
2026-04-30 13:33 33.18525 -46.42520 38742 ft 429 kts 238°
2026-04-30 13:34 33.13435 -46.51244 38728 ft 429 kts 238°
2026-04-30 13:35 33.06623 -46.62886 38741 ft 428 kts 238°
2026-04-30 13:36 32.99800 -46.74511 38739 ft 427 kts 238°
2026-04-30 13:36 32.94693 -46.83189 38739 ft 426 kts 238°
2026-04-30 13:37 32.89583 -46.91851 38738 ft 426 kts 239°
2026-04-30 13:38 32.84483 -47.00476 38745 ft 425 kts 239°
2026-04-30 13:39 32.77664 -47.11978 38742 ft 425 kts 239°
2026-04-30 13:40 32.72556 -47.20570 38743 ft 424 kts 239°
2026-04-30 13:40 32.69147 -47.26295 38741 ft 425 kts 239°
2026-04-30 13:41 32.65734 -47.32016 38743 ft 425 kts 239°
2026-04-30 13:41 32.62317 -47.37735 38741 ft 425 kts 239°
2026-04-30 13:42 32.58896 -47.43455 38740 ft 426 kts 239°
2026-04-30 13:42 32.53749 -47.52040 38741 ft 426 kts 239°
2026-04-30 13:43 32.50315 -47.57757 38740 ft 426 kts 239°
2026-04-30 13:43 32.46880 -47.63467 38742 ft 426 kts 239°
2026-04-30 13:44 32.43434 -47.69189 38738 ft 427 kts 239°
2026-04-30 13:44 32.39982 -47.74909 38739 ft 427 kts 239°
2026-04-30 13:45 32.34821 -47.83447 38742 ft 428 kts 239°
2026-04-30 13:46 32.31357 -47.89168 38728 ft 428 kts 239°
2026-04-30 13:46 32.27888 -47.94885 38740 ft 427 kts 239°
2026-04-30 13:47 32.24424 -48.00588 38736 ft 427 kts 239°
2026-04-30 13:47 32.20953 -48.06295 38743 ft 428 kts 239°
2026-04-30 13:48 32.17475 -48.12002 38740 ft 427 kts 239°
2026-04-30 13:48 32.14006 -48.17686 38746 ft 426 kts 239°
2026-04-30 13:49 32.10538 -48.23361 38758 ft 427 kts 239°
2026-04-30 13:49 32.07059 -48.29048 38739 ft 428 kts 239°
2026-04-30 13:50 32.03581 -48.34720 38746 ft 426 kts 239°
2026-04-30 13:50 31.98373 -48.43200 38750 ft 426 kts 239°
2026-04-30 13:51 31.94922 -48.48811 38734 ft 426 kts 240°
2026-04-30 13:51 31.91451 -48.54444 38751 ft 424 kts 240°
2026-04-30 13:52 31.87988 -48.60056 38752 ft 424 kts 240°
2026-04-30 13:52 31.84523 -48.65664 38762 ft 424 kts 240°
2026-04-30 13:53 31.81056 -48.71268 38755 ft 423 kts 240°
2026-04-30 13:53 31.77595 -48.76851 38765 ft 422 kts 240°
2026-04-30 13:54 31.74135 -48.82426 38762 ft 422 kts 240°
2026-04-30 13:54 31.70674 -48.87995 38770 ft 422 kts 240°
2026-04-30 13:55 31.67191 -48.93590 38760 ft 421 kts 241°
2026-04-30 13:55 31.63759 -48.99096 38760 ft 421 kts 241°
2026-04-30 13:56 31.60303 -49.04633 38763 ft 421 kts 241°
2026-04-30 13:56 31.56843 -49.10168 38747 ft 420 kts 242°
2026-04-30 13:57 31.53389 -49.15686 38766 ft 419 kts 242°
2026-04-30 13:57 31.49937 -49.21191 38768 ft 419 kts 242°
2026-04-30 13:58 31.44759 -49.29439 38771 ft 419 kts 241°
2026-04-30 13:59 31.41308 -49.34922 38774 ft 418 kts 242°
2026-04-30 13:59 31.37862 -49.40391 38774 ft 417 kts 242°
2026-04-30 14:00 31.34418 -49.45850 38778 ft 417 kts 242°
2026-04-30 14:00 31.29248 -49.54032 38784 ft 416 kts 242°
2026-04-30 14:01 31.25811 -49.59458 38779 ft 415 kts 242°
2026-04-30 14:01 31.22375 -49.64879 38779 ft 415 kts 242°
2026-04-30 14:02 31.18937 -49.70297 38782 ft 415 kts 242°
2026-04-30 14:02 31.15520 -49.75672 38785 ft 415 kts 242°
2026-04-30 14:03 31.12077 -49.81079 38785 ft 415 kts 242°
2026-04-30 14:03 31.08636 -49.86476 38788 ft 415 kts 242°
2026-04-30 14:04 31.05192 -49.91872 38788 ft 415 kts 242°
2026-04-30 14:04 31.01751 -49.97254 38790 ft 413 kts 242°
2026-04-30 14:05 30.98206 -50.02523 38789 ft 415 kts 238°
2026-04-30 14:05 30.94399 -50.07591 38793 ft 416 kts 237°
2026-04-30 14:06 30.88624 -50.15136 38788 ft 415 kts 237°
2026-04-30 14:07 30.82915 -50.22673 38798 ft 413 kts 237°
2026-04-30 14:08 30.77238 -50.30190 38802 ft 412 kts 237°
2026-04-30 14:08 30.71589 -50.37652 38810 ft 411 kts 237°
2026-04-30 14:09 30.67813 -50.42630 38796 ft 411 kts 237°
2026-04-30 14:10 30.62142 -50.50095 38806 ft 411 kts 237°
2026-04-30 14:10 30.58361 -50.55064 38802 ft 411 kts 237°
2026-04-30 14:11 30.54574 -50.60035 38814 ft 411 kts 237°
2026-04-30 14:11 30.50787 -50.64998 38820 ft 411 kts 237°
2026-04-30 14:12 30.46994 -50.69964 38814 ft 411 kts 237°
2026-04-30 14:12 30.43199 -50.74925 38817 ft 412 kts 237°
2026-04-30 14:13 30.39399 -50.79887 38819 ft 412 kts 237°
2026-04-30 14:13 30.35596 -50.84846 38821 ft 412 kts 237°
2026-04-30 14:14 30.31792 -50.89801 38822 ft 412 kts 237°
2026-04-30 14:14 30.27980 -50.94760 38821 ft 413 kts 236°
2026-04-30 14:15 30.24162 -50.99721 38835 ft 413 kts 236°
2026-04-30 14:15 30.20343 -51.04675 38821 ft 413 kts 236°
2026-04-30 14:16 30.16521 -51.09627 38824 ft 413 kts 236°
2026-04-30 14:16 30.12722 -51.14545 38831 ft 413 kts 236°
2026-04-30 14:17 30.08891 -51.19497 38835 ft 413 kts 236°
2026-04-30 14:17 30.05057 -51.24446 38834 ft 414 kts 236°
2026-04-30 14:18 30.01220 -51.29392 38835 ft 414 kts 236°
2026-04-30 14:18 29.96105 -51.35979 38840 ft 415 kts 236°
2026-04-30 14:19 29.90319 -51.43416 38844 ft 415 kts 236°
2026-04-30 14:20 29.86456 -51.48372 38841 ft 415 kts 236°
2026-04-30 14:20 29.80652 -51.55808 38845 ft 417 kts 236°
2026-04-30 14:21 29.76768 -51.60777 38850 ft 418 kts 236°
2026-04-30 14:22 29.70932 -51.68228 38850 ft 418 kts 236°
2026-04-30 14:22 29.65090 -51.75675 38853 ft 418 kts 236°
2026-04-30 14:23 29.57292 -51.85595 38856 ft 419 kts 236°
2026-04-30 14:24 29.51425 -51.93041 38850 ft 420 kts 236°
2026-04-30 14:25 29.43577 -52.02979 38862 ft 420 kts 235°
2026-04-30 14:26 29.37680 -52.10431 38862 ft 421 kts 235°
2026-04-30 14:27 29.31790 -52.17861 38863 ft 422 kts 235°
2026-04-30 14:27 29.27842 -52.22833 38867 ft 422 kts 235°
2026-04-30 14:28 29.21912 -52.30289 38865 ft 422 kts 235°
2026-04-30 14:28 29.17950 -52.35264 38873 ft 423 kts 235°
2026-04-30 14:29 29.10009 -52.45215 38875 ft 424 kts 235°
2026-04-30 14:31 29.00058 -52.57652 38881 ft 425 kts 234°
2026-04-30 14:31 28.94057 -52.65132 38881 ft 426 kts 234°
2026-04-30 14:32 28.88049 -52.72607 38862 ft 426 kts 234°
2026-04-30 14:33 28.84030 -52.77601 38874 ft 428 kts 234°
2026-04-30 14:33 28.77980 -52.85106 38895 ft 429 kts 234°
2026-04-30 14:34 28.73941 -52.90107 38889 ft 429 kts 234°
2026-04-30 14:34 28.69903 -52.95103 38885 ft 429 kts 234°
2026-04-30 14:35 28.63814 -53.02625 38893 ft 431 kts 234°
2026-04-30 14:36 28.59747 -53.07640 38897 ft 431 kts 234°
2026-04-30 14:36 28.55676 -53.12653 38891 ft 431 kts 234°
2026-04-30 14:37 28.51630 -53.17631 38891 ft 432 kts 233°
2026-04-30 14:37 28.47545 -53.22651 38904 ft 433 kts 233°
2026-04-30 14:38 28.43454 -53.27671 38899 ft 433 kts 233°
2026-04-30 14:38 28.39356 -53.32694 38906 ft 433 kts 233°
2026-04-30 14:39 28.35257 -53.37713 38905 ft 434 kts 233°
2026-04-30 14:39 28.31150 -53.42735 38905 ft 434 kts 233°
2026-04-30 14:40 28.24983 -53.50263 38909 ft 434 kts 233°
2026-04-30 14:40 28.20870 -53.55276 38908 ft 434 kts 233°
2026-04-30 14:41 28.16758 -53.60284 38904 ft 434 kts 232°
2026-04-30 14:41 28.12641 -53.65290 38918 ft 434 kts 232°
2026-04-30 14:42 28.08523 -53.70291 38915 ft 434 kts 232°
2026-04-30 14:42 28.04403 -53.75290 38911 ft 434 kts 232°
2026-04-30 14:43 28.00277 -53.80289 38911 ft 435 kts 232°
2026-04-30 14:43 27.96148 -53.85286 38917 ft 435 kts 232°
2026-04-30 14:44 27.92016 -53.90280 38917 ft 435 kts 232°
2026-04-30 14:44 27.87883 -53.95271 38919 ft 435 kts 232°
2026-04-30 14:45 27.83748 -54.00258 38925 ft 435 kts 232°
2026-04-30 14:45 27.79622 -54.05227 38915 ft 434 kts 232°
2026-04-30 14:46 27.75485 -54.10203 38925 ft 435 kts 232°
2026-04-30 14:46 27.71347 -54.15175 38919 ft 434 kts 232°
2026-04-30 14:47 27.67208 -54.20143 38904 ft 434 kts 231°
2026-04-30 14:47 27.63096 -54.25072 38922 ft 434 kts 231°
2026-04-30 14:48 27.58958 -54.30026 38924 ft 434 kts 231°
2026-04-30 14:48 27.54817 -54.34979 38927 ft 434 kts 231°
2026-04-30 14:49 27.50673 -54.39929 38930 ft 434 kts 231°
2026-04-30 14:49 27.46528 -54.44874 38931 ft 434 kts 231°
2026-04-30 14:50 27.40319 -54.52271 38934 ft 433 kts 231°
2026-04-30 14:51 27.34109 -54.59657 38935 ft 433 kts 231°
2026-04-30 14:52 27.27896 -54.67032 38936 ft 432 kts 231°
2026-04-30 14:52 27.21708 -54.74365 38938 ft 431 kts 231°
2026-04-30 14:53 27.15515 -54.81693 38941 ft 431 kts 231°
2026-04-30 14:54 27.07263 -54.91434 38944 ft 429 kts 231°
2026-04-30 14:55 27.01104 -54.98693 38944 ft 428 kts 231°
2026-04-30 14:56 26.92496 -55.08017 38945 ft 431 kts 228°
2026-04-30 14:57 26.85972 -55.14839 38950 ft 426 kts 229°
2026-04-30 14:58 26.77357 -55.23936 38949 ft 426 kts 229°
2026-04-30 14:58 26.70902 -55.30754 38952 ft 425 kts 229°
2026-04-30 15:00 26.60127 -55.42047 38956 ft 425 kts 229°
2026-04-30 15:01 26.51518 -55.51070 38963 ft 423 kts 229°
2026-04-30 15:01 26.45113 -55.57772 38964 ft 422 kts 229°
2026-04-30 15:02 26.40826 -55.62252 38960 ft 422 kts 229°
2026-04-30 15:03 26.30107 -55.73430 38959 ft 420 kts 229°
2026-04-30 15:04 26.19426 -55.84542 38963 ft 421 kts 229°
2026-04-30 15:06 26.09452 -55.94891 38975 ft 421 kts 229°
2026-04-30 15:07 26.00886 -56.03758 38965 ft 421 kts 229°
2026-04-30 15:08 25.92316 -56.12610 38976 ft 419 kts 229°
2026-04-30 15:09 25.81659 -56.23594 38974 ft 418 kts 229°
2026-04-30 15:10 25.73133 -56.32360 38973 ft 417 kts 229°
2026-04-30 15:11 25.60368 -56.45451 38979 ft 417 kts 229°
2026-04-30 15:13 25.49744 -56.56316 38982 ft 414 kts 229°
2026-04-30 15:14 25.34933 -56.71420 38985 ft 415 kts 229°
2026-04-30 15:17 25.15913 -56.90739 38988 ft 413 kts 229°
2026-04-30 15:19 24.98961 -57.07881 38993 ft 413 kts 229°